Date,TemperatureHighF,TemperatureAvgF,TemperatureLowF,DewpointHighF,DewpointAvgF,DewpointLowF,HumidityHigh,HumidityAvg,HumidityLow,PressureMaxIn,PressureMinIn,WindSpeedMaxMPH,WindSpeedAvgMPH,GustSpeedMaxMPH,PrecipitationSumIn
2014-1-1,68,50,34,50,37,27,82,64,44,29.64,29.30,18,4,21,0.00
2014-1-2,46,32,23,27,16,14,71,54,29,29.88,29.57,15,4,15,0.00
2014-1-3,53,35,18,25,19,13,82,55,25,29.88,29.47,14,1,14,0.00
2014-1-4,70,53,39,53,41,24,80,65,47,29.47,29.15,22,5,24,0.00
2014-1-5,60,36,21,54,22,5,82,58,40,29.94,29.15,18,7,18,0.00
2014-1-6,33,21,13,6,0,-5,64,42,20,30.16,29.93,11,3,11,0.00
2014-1-7,49,32,14,13,8,4,69,41,17,30.00,29.72,16,2,16,0.00
2014-1-8,49,43,38,41,32,13,83,66,34,29.72,29.54,12,1,12,0.01
2014-1-9,46,42,37,46,41,36,99,96,83,29.64,29.41,2,0,6,0.08
2014-1-10,66,58,46,66,58,45,99,99,93,29.47,29.06,13,1,16,0.40
2014-1-11,67,48,35,46,39,32,99,74,31,29.50,29.21,21,2,21,0.00
2014-1-12,74,54,35,57,39,-100,91,61,21,29.65,29.26,27,4,27,0.00
2014-1-13,63,55,34,58,38,21,88,56,36,29.65,29.65,21,9,21,0.00
2014-1-14,68,49,32,41,30,20,67,48,35,29.65,29.65,24,8,24,0.00
2014-1-15,54,42,31,30,25,21,73,53,37,29.65,29.65,14,6,14,0.00
2014-1-16,64,50,40,38,30,20,66,46,36,29.65,29.65,21,7,21,0.00
2014-1-17,53,44,29,28,20,10,52,38,35,29.65,29.65,21,6,21,0.00
2014-1-18,66,49,35,40,28,16,54,43,36,29.65,29.65,26,9,26,0.00
2014-1-19,62,48,32,36,29,24,81,50,36,29.65,29.65,14,5,14,0.00
2014-1-20,71,57,45,45,36,26,69,48,37,29.65,29.65,21,8,21,0.00
2014-1-21,52,40,25,28,18,10,81,43,27,29.65,29.65,24,8,24,0.00
2014-1-22,59,43,27,34,24,16,70,50,34,29.65,29.65,13,6,13,0.00
2014-1-23,42,33,22,25,14,3,58,45,38,29.65,29.65,26,13,26,0.00
2014-1-24,41,28,17,18,8,-100,63,44,25,30.14,29.65,16,2,16,0.00
2014-1-25,69,45,29,37,28,18,71,53,28,29.65,29.39,15,2,15,0.00
2014-1-26,70,56,43,44,38,33,82,51,33,29.65,29.20,20,4,21,0.00
2014-1-27,46,36,24,40,16,2,82,46,35,29.65,29.65,31,14,31,0.00
2014-1-28,35,24,14,17,8,1,80,49,38,29.65,29.65,23,8,23,0.00
2014-1-29,48,26,-66,100,14,5,100,54,21,29.90,29.62,15,4,15,0.18
2014-1-30,56,41,29,47,30,15,85,65,49,29.65,29.49,31,12,31,0.00
2014-1-31,75,61,51,62,54,46,91,80,51,29.65,29.65,26,12,26,0.00
2014-2-1,62,53,38,58,48,32,89,85,75,29.65,29.65,18,8,18,0.02
2014-2-2,38,32,27,32,27,20,91,81,75,29.65,29.65,25,10,25,0.47
2014-2-3,41,34,28,40,30,21,100,87,76,29.65,29.65,10,4,10,0.00
2014-2-4,43,39,36,42,34,30,100,82,76,29.65,29.65,20,5,20,0.39
2014-2-5,37,28,22,32,22,16,91,78,68,29.65,29.65,26,12,26,0.01
2014-2-6,26,22,18,20,16,6,80,76,56,30.01,29.65,18,3,18,0.00
2014-2-7,37,30,24,30,24,18,92,79,64,29.84,29.65,5,0,5,0.00
2014-2-8,50,38,32,44,36,30,99,93,76,29.66,29.44,8,0,8,0.05
2014-2-9,50,42,32,48,42,32,99,97,88,29.54,29.43,5,0,5,0.00
2014-2-10,41,36,32,41,36,32,99,98,88,29.68,29.51,9,2,9,0.00
2014-2-11,34,32,31,32,29,26,97,87,76,29.76,29.62,9,1,9,0.06
2014-2-12,53,38,29,33,28,22,92,70,39,29.65,29.45,16,4,16,0.03
2014-2-13,64,44,23,43,34,17,95,69,41,29.65,29.28,18,5,18,0.00
2014-2-14,72,55,42,49,39,13,88,57,11,29.65,29.15,26,9,26,0.00
2014-2-15,67,50,27,40,32,21,85,53,36,29.65,29.65,18,6,18,0.00
2014-2-16,71,59,41,63,53,32,91,79,55,29.65,29.65,23,7,23,0.00
2014-2-17,75,65,43,65,47,27,93,57,32,29.65,29.65,25,9,25,0.00
2014-2-18,77,58,38,64,48,28,90,70,44,29.65,29.65,24,6,24,0.00
2014-2-19,71,66,61,67,62,56,93,88,82,29.65,29.65,29,11,29,0.00
2014-2-20,72,62,36,68,49,29,94,67,36,29.65,29.65,30,12,30,0.00
2014-2-21,62,40,25,35,27,19,81,63,36,29.65,29.65,12,2,12,0.00
2014-2-22,73,59,47,53,40,32,86,51,37,29.65,29.65,25,9,25,0.00
2014-2-23,76,59,44,65,51,37,92,77,48,29.65,29.65,23,9,23,0.00
2014-2-24,56,49,42,47,42,35,85,76,66,29.65,29.65,13,6,13,0.00
2014-2-25,52,48,38,48,42,31,86,79,65,29.65,29.65,21,8,21,0.22
2014-2-26,45,35,22,33,21,16,82,59,36,29.65,29.65,26,10,26,0.01
2014-2-27,54,35,16,32,20,5,83,57,35,29.65,29.65,14,4,14,0.00
2014-2-28,71,54,41,55,45,31,88,73,49,29.65,29.65,30,11,30,0.01
2014-3-1,78,64,53,68,59,47,93,82,60,29.65,29.65,21,7,21,0.00
2014-3-2,69,32,18,66,28,6,89,82,61,29.73,29.65,21,10,21,0.11
2014-3-3,34,24,16,24,17,10,87,75,62,29.88,29.71,7,0,7,0.01
2014-3-4,45,34,24,35,28,21,94,82,60,29.75,29.45,9,0,9,0.00
2014-3-5,55,41,28,40,32,-100,99,77,52,29.58,29.40,5,-16,8,0.00
2014-3-6,57,44,33,44,38,31,97,81,59,29.66,29.46,12,2,12,0.00
2014-3-7,66,49,29,46,39,28,99,72,44,29.46,29.26,17,2,17,0.00
2014-3-8,57,48,36,54,44,30,100,85,76,29.65,29.29,20,7,20,0.01
2014-3-9,65,47,36,50,40,29,87,76,55,29.65,29.65,14,6,14,0.00
2014-3-10,74,56,40,58,44,33,88,66,37,29.65,29.65,20,6,20,0.00
2014-3-11,76,64,56,62,56,42,91,77,47,29.65,29.65,24,9,24,0.00
2014-3-12,62,52,39,43,33,21,71,49,35,29.65,29.65,32,12,32,0.00
2014-3-13,66,49,25,39,31,19,85,52,36,29.65,29.65,17,5,17,0.00
2014-3-14,73,57,46,57,49,26,87,73,37,29.65,29.65,24,8,24,0.82
2014-3-15,66,59,52,63,55,46,91,85,78,29.65,29.65,17,5,17,0.96
2014-3-16,54,47,40,49,41,33,86,82,75,29.65,29.65,28,11,28,0.01
2014-3-17,61,46,30,38,32,23,84,60,36,29.65,29.65,20,6,20,0.00
2014-3-18,77,62,48,55,46,33,82,59,38,29.65,29.63,31,13,31,0.02
2014-3-19,66,54,41,42,36,31,80,52,38,29.64,29.64,20,7,20,0.00
2014-3-20,71,52,29,45,34,22,84,56,36,29.64,29.64,14,4,14,0.00
2014-3-21,77,64,52,64,51,32,87,63,44,31.68,29.64,26,9,26,0.00
2014-3-22,66,61,54,62,56,48,88,84,69,31.82,31.59,17,5,17,0.00
2014-3-23,60,51,42,49,40,34,83,66,45,32.06,31.79,27,10,27,0.00
2014-3-24,66,52,33,42,35,26,81,55,38,32.02,31.61,14,4,14,0.00
2014-3-25,63,51,39,40,33,28,79,54,37,32.11,31.87,21,7,21,0.00
2014-3-26,59,52,40,52,40,31,82,64,48,32.04,31.68,26,11,26,0.02
2014-3-27,75,64,56,72,59,49,89,84,78,31.74,31.38,25,13,25,0.02
2014-3-28,79,66,51,72,60,44,87,82,62,31.94,31.49,20,7,20,0.07
2014-3-29,74,57,42,49,42,34,84,59,38,32.08,31.83,17,6,17,0.00
2014-3-30,75,58,35,50,41,28,79,56,39,32.13,31.80,26,8,26,0.00
2014-3-31,77,65,55,63,56,48,81,72,56,32.06,31.70,29,12,29,0.00
2014-4-1,80,68,63,67,60,55,80,76,58,32.04,31.59,21,9,21,0.00
2014-4-2,81,73,68,74,66,60,82,78,71,32.04,31.53,28,12,28,0.01
2014-4-3,79,72,61,72,66,53,83,79,67,31.93,31.46,23,12,23,0.62
2014-4-4,67,55,43,59,40,35,77,60,40,32.66,31.53,22,8,22,0.00
2014-4-5,55,50,41,45,39,33,78,68,56,32.67,31.61,17,6,17,0.02
2014-4-6,52,48,46,45,40,38,77,75,72,32.18,31.36,20,8,20,0.69
2014-4-7,65,53,46,55,45,38,80,75,62,32.67,31.36,13,5,13,0.00
2014-4-8,69,56,42,48,42,33,76,60,39,32.13,31.51,24,9,24,0.00
2014-4-9,77,58,35,52,41,27,77,57,40,32.26,31.62,20,6,20,0.00
2014-4-10,81,69,57,61,54,48,80,61,42,32.10,31.79,29,14,29,0.01
2014-4-11,80,69,61,66,60,53,81,72,56,32.15,31.76,21,11,21,0.00
2014-4-12,81,71,62,67,62,54,80,74,56,32.13,31.63,28,12,28,0.00
2014-4-13,75,68,64,69,61,57,82,79,77,31.99,31.52,22,11,22,0.91
2014-4-14,70,49,37,63,41,29,78,72,57,31.99,31.38,23,9,23,0.01
2014-4-15,66,46,25,42,31,18,76,58,39,32.70,31.69,12,3,12,0.00
2014-4-16,66,53,36,45,38,28,77,59,40,32.11,31.56,22,9,22,0.00
2014-4-17,68,57,46,57,49,38,80,73,60,32.24,31.63,12,5,12,0.00
2014-4-18,78,62,50,56,48,42,78,64,41,32.36,31.74,13,3,13,0.00
2014-4-19,78,63,50,63,52,42,80,67,43,32.33,31.70,13,3,13,0.00
2014-4-20,78,66,54,64,55,46,80,70,49,32.29,31.74,21,6,21,0.25
2014-4-21,78,66,60,72,60,52,83,79,76,32.10,31.64,18,6,18,1.20
2014-4-22,84,68,54,71,57,46,81,69,43,32.29,31.58,13,3,13,0.01
2014-4-23,83,69,53,69,58,45,80,70,48,31.99,31.50,18,6,18,0.01
2014-4-24,82,70,52,73,59,44,82,70,42,32.02,31.47,25,9,25,0.00
2014-4-25,81,63,44,56,48,36,76,60,41,32.67,31.51,13,3,13,0.00
2014-4-26,81,70,58,75,61,46,83,75,55,31.99,31.48,23,10,23,0.00
2014-4-27,83,74,68,77,67,60,82,79,73,31.82,31.36,26,11,26,0.01
2014-4-28,81,71,61,67,53,43,78,53,42,31.96,31.26,18,5,18,0.00
2014-4-29,74,63,45,53,46,37,75,56,43,32.08,31.32,18,6,18,0.00
2014-4-30,67,52,38,45,38,29,74,61,42,32.67,31.64,20,5,20,0.00
2014-5-1,73,54,35,50,39,27,75,59,43,32.67,31.61,16,3,16,0.00
2014-5-2,80,59,38,56,44,29,76,59,41,32.67,31.53,14,3,14,0.00
2014-5-3,87,63,39,61,48,30,77,60,42,32.67,31.62,12,2,12,0.00
2014-5-4,87,73,61,64,53,45,61,49,44,32.67,31.66,23,9,23,0.00
2014-5-5,83,72,60,65,56,42,78,58,47,31.98,31.52,24,11,24,0.00
2014-5-6,83,72,61,69,62,53,78,71,54,32.67,31.50,25,12,25,0.00
2014-5-7,81,72,66,72,65,59,80,78,70,32.67,31.52,24,12,24,0.00
2014-5-8,73,68,63,66,60,55,78,77,75,32.67,31.53,21,6,21,0.41
2014-5-9,84,74,62,78,66,54,81,78,75,32.67,31.59,17,6,17,0.02
2014-5-10,82,73,64,76,66,56,87,77,67,32.67,31.55,20,7,20,0.00
2014-5-11,84,77,70,77,70,63,100,80,70,32.67,29.78,24,12,24,0.00
2014-5-12,82,72,58,76,65,50,89,79,74,32.18,30.86,26,10,26,1.02
2014-5-13,67,58,54,58,51,46,99,77,67,32.67,30.58,18,8,18,0.02
2014-5-14,70,58,48,55,46,40,78,67,41,32.67,31.75,20,6,20,0.24
2014-5-15,83,61,43,59,48,35,100,64,42,32.67,31.76,22,5,22,0.00
2014-5-16,81,66,51,62,54,43,79,65,43,32.67,31.58,18,6,18,0.00
2014-5-17,79,69,54,67,57,46,80,67,51,32.67,31.57,20,7,20,0.00
2014-5-18,81,70,59,68,61,51,80,72,53,32.67,31.70,20,7,20,0.00
2014-5-19,82,73,64,69,63,56,79,73,57,32.67,31.68,26,12,26,0.00
2014-5-20,83,75,67,71,66,60,94,74,58,32.67,31.19,24,11,24,0.00
2014-5-21,84,74,65,72,65,58,81,74,57,32.67,31.75,18,8,18,0.00
2014-5-22,84,74,65,72,65,57,81,74,55,32.67,31.76,18,7,18,0.00
2014-5-23,81,73,67,75,66,60,96,79,74,32.67,31.74,13,5,13,0.00
2014-5-24,82,74,68,73,66,60,81,77,67,32.66,31.74,17,6,17,0.04
2014-5-25,83,75,69,73,67,62,82,76,61,32.66,31.74,20,7,20,0.00
2014-5-26,77,72,63,75,65,55,100,81,76,32.65,31.66,18,6,18,0.10
2014-5-27,76,68,63,71,62,55,100,80,76,32.67,30.75,14,5,14,0.20
2014-5-28,87,72,63,72,63,55,100,74,50,32.67,31.58,14,3,14,0.11
2014-5-29,89,74,61,75,64,53,80,72,51,32.67,31.58,12,2,12,0.00
2014-5-30,84,72,65,78,66,57,100,81,76,32.67,29.86,13,3,13,0.00
2014-5-31,87,74,67,79,68,60,100,81,65,32.22,29.91,12,3,12,0.00
2014-6-1,87,77,69,80,70,62,82,78,67,31.98,31.66,13,5,13,0.00
2014-6-2,87,79,72,77,70,65,100,76,61,32.16,31.62,23,7,23,0.00
2014-6-3,89,79,71,78,71,63,100,76,59,32.66,31.20,14,6,14,0.00
2014-6-4,87,80,74,75,71,67,79,75,62,32.63,31.68,20,8,20,0.00
2014-6-5,87,78,72,79,71,65,100,79,67,32.65,31.30,20,8,20,0.00
2014-6-6,88,79,72,78,71,65,100,76,60,32.65,30.65,16,7,16,0.00
2014-6-7,92,81,72,78,71,65,100,71,51,32.65,31.78,21,7,21,0.00
2014-6-8,86,78,75,77,71,68,79,78,68,32.63,32.57,18,6,18,0.00
2014-6-9,78,70,63,71,63,55,100,78,75,32.67,32.62,21,6,21,0.98
2014-6-10,84,71,60,71,61,52,100,72,52,32.67,31.52,12,4,12,0.00
2014-6-11,89,74,58,73,63,50,100,68,51,32.67,31.61,13,4,13,0.00
2014-6-12,86,74,69,79,67,61,100,79,72,32.67,30.59,25,5,25,0.56
2014-6-13,89,77,69,75,68,61,81,73,57,32.67,31.68,12,3,12,0.00
2014-6-14,88,79,71,80,71,64,93,76,61,32.65,31.68,20,9,20,0.00
2014-6-15,89,81,73,79,71,66,100,73,58,32.63,24.42,22,10,22,0.00
2014-6-16,89,81,74,80,72,67,100,73,58,32.64,25.11,21,10,21,0.00
2014-6-17,89,80,75,79,72,67,100,77,59,32.63,23.24,32,9,32,0.08
2014-6-18,91,82,76,81,74,43,100,76,59,32.60,22.15,21,7,21,0.00
2014-6-19,87,75,73,78,74,73,100,97,74,29.53,24.93,4,4,4,0.00
2014-6-20,73,73,73,73,73,73,100,100,100,29.51,29.39,4,4,4,0.00
2014-6-21,73,73,73,73,73,73,100,100,100,29.46,29.31,4,4,4,0.00
2014-6-22,77,74,73,73,70,66,100,88,78,32.63,22.32,10,2,10,0.04
2014-6-23,76,73,70,73,66,62,100,79,70,32.65,22.76,14,2,14,0.13
2014-6-24,87,76,69,81,70,66,100,84,75,31.64,29.66,15,3,15,0.01
2014-6-25,80,73,68,80,73,68,100,99,88,29.84,29.71,18,4,18,0.01
2014-6-26,87,77,70,80,74,70,100,93,64,29.82,29.60,20,8,20,0.00
2014-6-27,89,78,71,80,75,71,100,93,66,29.72,29.54,26,10,26,0.00
2014-6-28,90,81,76,82,77,72,100,90,60,29.70,29.58,25,12,25,0.00
2014-6-29,90,83,78,81,78,73,100,86,60,29.77,29.64,23,10,23,0.00
2014-6-30,92,82,75,80,75,69,100,82,51,29.76,29.58,25,12,25,0.00
2014-7-1,91,80,70,80,75,69,100,86,54,29.78,29.60,20,6,20,0.00
2014-7-2,96,81,72,81,74,65,100,82,42,29.85,29.69,20,4,20,0.00
2014-7-3,86,75,66,79,72,66,100,91,61,29.97,29.80,17,4,17,0.56
2014-7-4,70,69,68,70,69,68,100,100,100,29.96,29.94,4,0,4,0.00
2014-7-7,92,84,79,76,72,69,92,68,51,29.68,29.61,14,7,14,0.00
2014-7-8,94,83,74,80,75,68,100,80,46,29.78,29.64,20,7,20,0.00
2014-7-9,94,83,73,77,73,69,100,75,46,29.81,29.62,14,6,14,0.00
2014-7-10,93,83,73,78,71,65,100,71,42,29.80,29.64,17,7,17,0.00
2014-7-11,93,81,70,77,71,66,100,75,43,29.90,29.74,18,6,18,0.00
2014-7-12,95,83,70,77,71,63,100,73,35,29.94,29.73,14,4,14,0.00
2014-7-13,99,84,69,79,72,66,100,71,36,29.86,29.62,14,4,14,0.00
2014-7-14,97,80,71,78,74,68,100,87,41,29.77,29.56,29,5,29,0.19
2014-7-15,93,78,69,78,65,52,100,70,27,29.81,29.64,16,5,16,0.03
2014-7-16,89,76,60,71,66,57,100,74,49,29.87,29.62,12,4,12,0.00
2014-7-17,76,70,65,72,68,65,100,97,85,29.79,29.67,16,6,16,1.85
2014-7-18,73,66,62,73,66,62,100,100,93,29.82,29.74,14,5,14,0.01
2014-7-19,77,70,65,74,69,65,100,97,80,29.85,29.76,9,2,9,0.00
2014-7-20,89,75,63,79,71,63,100,89,61,29.86,29.65,12,4,12,0.01
2014-7-21,94,80,69,83,75,69,100,88,52,29.84,29.65,10,4,10,0.00
2014-7-22,92,81,71,81,76,71,100,87,58,29.85,29.72,12,4,12,0.01
2014-7-23,96,77,66,81,72,66,100,85,50,29.90,29.68,23,3,23,0.00
2014-7-24,91,78,67,79,72,67,100,83,53,29.87,29.65,14,3,14,0.00
2014-7-25,94,82,71,82,74,71,100,80,47,29.81,29.59,15,7,15,0.00
2014-7-26,96,84,73,81,75,69,100,78,44,29.78,29.59,17,8,17,0.00
2014-7-27,98,86,75,80,75,70,100,75,43,29.80,29.63,16,8,16,0.00
2014-7-28,95,83,74,83,74,63,100,77,44,29.88,29.74,20,5,20,0.00
2014-7-29,92,77,66,75,68,62,100,77,37,29.93,29.77,12,2,12,0.00
2014-7-30,86,76,67,81,74,67,100,93,68,29.88,29.66,14,5,14,0.11
2014-7-31,80,72,67,80,72,67,100,100,98,29.82,29.68,17,6,17,3.06
2014-8-1,77,70,67,76,70,67,100,100,95,29.85,29.79,13,5,13,0.05
2014-8-2,88,74,65,78,70,65,100,90,59,29.91,29.74,14,3,14,0.00
2014-8-3,91,77,67,78,71,67,100,85,55,29.89,29.70,14,4,14,0.01
2014-8-4,92,78,68,79,71,68,100,84,47,29.87,29.68,13,2,13,0.01
2014-8-5,95,80,68,82,74,68,100,84,49,29.86,29.68,10,3,10,0.05
2014-8-6,93,83,74,81,76,70,100,83,49,29.81,29.62,14,6,14,0.09
2014-8-7,94,83,74,82,78,74,100,85,54,29.72,29.50,16,7,16,0.16
2014-8-8,97,85,76,82,77,72,100,80,47,29.70,29.52,17,7,17,0.09
2014-8-9,96,85,75,82,76,70,100,80,45,29.76,29.57,15,6,15,0.00
2014-8-10,101,85,74,82,76,70,100,79,40,29.77,29.58,10,4,10,0.00
2014-8-11,95,83,72,81,73,67,100,77,41,29.82,29.64,17,4,17,0.00
2014-8-12,92,77,62,77,65,54,100,72,29,29.87,29.69,20,4,20,0.00
2014-8-13,91,73,56,73,63,56,100,74,38,29.93,29.70,13,3,13,0.00
2014-8-14,92,76,60,74,65,60,100,74,40,29.88,29.66,13,3,13,0.00
2014-8-15,95,81,69,78,72,68,100,77,44,29.81,29.57,14,6,14,0.00
2014-8-16,97,80,72,80,75,69,100,89,46,29.71,29.54,22,7,22,0.86
2014-8-17,78,75,72,78,75,72,100,100,100,29.81,29.66,13,2,13,0.56
2014-8-18,92,80,72,84,78,71,100,92,54,29.73,29.54,17,4,17,0.00
2014-8-19,95,83,74,83,75,66,100,81,42,29.69,29.53,20,7,20,0.01
2014-8-20,94,83,74,82,76,70,100,82,47,29.74,29.59,21,8,21,0.00
2014-8-21,95,84,74,83,74,66,100,75,39,29.82,29.62,20,9,20,0.00
2014-8-22,98,85,76,81,74,64,100,73,35,29.82,29.62,20,8,20,0.00
2014-8-23,96,84,73,80,72,63,100,72,35,29.78,29.56,15,6,15,0.00
2014-8-24,98,85,73,79,72,66,100,72,37,29.73,29.52,14,6,14,0.00
2014-8-25,101,85,73,79,73,67,100,73,35,29.75,29.54,12,4,12,0.00
2014-8-26,96,84,73,81,74,68,100,76,44,29.79,29.61,14,4,14,0.00
2014-8-27,94,82,69,82,71,64,100,76,39,29.83,29.64,15,4,15,0.00
2014-8-28,96,80,67,78,70,66,100,76,40,29.79,29.52,16,4,16,0.00
2014-8-29,91,79,72,80,76,72,100,91,58,29.72,29.54,14,4,14,0.13
2014-8-30,94,80,71,80,73,68,100,82,46,29.74,29.54,14,5,14,0.00
2014-8-31,91,81,72,80,75,70,100,84,52,29.76,29.58,20,9,20,0.00
2014-9-1,93,83,74,81,74,70,100,79,49,29.70,29.54,20,10,20,0.00
2014-9-2,98,83,75,81,76,71,100,84,45,29.74,29.57,20,8,20,0.00
2014-9-3,94,83,74,82,74,67,100,78,43,29.78,29.60,18,8,18,0.00
2014-9-4,93,83,73,82,74,68,100,78,46,29.80,29.64,18,7,18,0.00
2014-9-5,99,82,72,81,73,67,100,78,39,29.88,29.63,13,4,13,0.00
2014-9-6,97,82,69,81,73,64,100,78,38,29.85,29.62,17,4,17,0.00
2014-9-7,89,77,70,78,73,70,100,90,60,29.87,29.68,13,4,13,0.00
2014-9-8,93,80,69,81,73,69,100,82,51,29.82,29.60,12,3,12,0.00
2014-9-9,96,84,73,80,73,67,100,73,42,29.76,29.51,20,8,20,0.00
2014-9-10,96,84,76,80,75,70,100,77,44,29.60,29.42,24,11,24,0.00
2014-9-11,91,80,71,81,77,71,100,93,63,29.80,29.57,15,6,15,0.20
2014-9-12,76,69,60,76,69,60,100,100,94,30.03,29.77,20,7,20,0.00
2014-9-13,67,62,57,65,61,57,100,98,90,30.09,29.98,20,8,20,0.00
2014-9-14,84,70,60,70,65,60,100,88,56,30.07,29.83,12,3,12,0.00
2014-9-15,84,72,65,77,70,65,100,95,69,29.95,29.80,7,1,7,0.00
2014-9-16,92,80,70,81,73,67,100,82,46,29.90,29.66,13,2,13,0.00
2014-9-17,94,79,69,81,74,69,100,86,52,29.78,29.54,15,3,15,0.00
2014-9-18,88,77,68,81,74,68,100,91,63,29.73,29.55,15,4,15,0.00
2014-9-19,89,77,68,78,72,68,100,87,54,29.78,29.59,12,4,12,0.00
2014-9-20,94,78,63,79,68,60,100,77,35,29.87,29.62,17,4,17,0.00
2014-9-21,95,78,62,78,67,62,100,75,37,29.94,29.66,12,3,12,0.00